Date String (YYYY-MM-DD hh:mm:ss) UTC,Instrument flags,Ambient pressure (hPa),Sample flow (lpm),Bypass flow (lpm),Sample temperature (°C),Ambient temperature (°C),ASC tube jacket temperature (°C),LED temperature (°C),Box temperature (°C),Sample RH (%),Span deviation,Mass concentration (μg/m³),Mass concentration (μg/m³),Mass concentration (μg/m³)
DateTimeUTC,F1_M11,P_M11,Q1_M11,Q2_M11,T1_M11,T2_M11,T3_M11,T4_M11,T5_M11,U1_M11,ZSPAN_M11,X0_M11,X2_M11,X1_M11
2022-08-14 16:00:00,,0829.5,5.00,0.00,29.5,28.2,00.0,38.2,31.4,32.8,0000.0,0010.39,0005.10,0004.41
2022-08-14 16:01:00,,0829.5,5.00,0.00,29.5,27.6,00.0,38.2,31.2,33.0,0000.0,0010.35,0005.10,0004.42
2022-08-14 16:02:00,,0829.5,4.99,0.00,29.5,27.4,00.0,38.2,31.1,33.7,0000.0,0010.32,0005.10,0004.43
2022-08-14 16:03:00,,0829.6,5.00,0.00,29.4,27.4,00.0,38.2,31.0,34.1,0000.0,0010.21,0005.10,0004.44
2022-08-14 16:04:00,,0829.5,5.01,0.00,29.3,27.5,00.0,38.2,31.1,34.5,0000.0,0010.21,0005.11,0004.45
2022-08-14 16:05:00,,0829.5,5.00,0.00,29.3,27.6,00.0,38.1,31.1,34.9,0000.0,0010.46,0005.15,0004.46
2022-08-14 16:06:00,,0829.5,4.99,0.00,29.4,27.8,00.0,38.2,31.2,34.8,0000.0,0011.25,0005.20,0004.48
2022-08-14 16:07:00,,0829.5,4.99,0.00,29.5,28.0,00.0,38.2,31.3,34.0,0000.0,0011.38,0005.24,0004.48
2022-08-14 16:08:00,,0829.5,5.00,0.00,29.6,28.1,00.0,38.2,31.4,33.8,0000.0,0010.99,0005.30,0004.49
2022-08-14 16:09:00,,0829.5,5.00,0.00,29.7,28.2,00.0,38.2,31.4,33.3,0000.0,0010.60,0005.28,0004.50
2022-08-14 16:10:00,,0829.5,5.00,0.00,29.7,28.4,00.0,38.2,31.5,33.5,0000.0,0010.37,0005.28,0004.50
2022-08-14 16:11:00,,0829.5,5.01,0.00,29.8,28.5,00.0,38.3,31.5,33.7,0000.0,0010.18,0005.29,0004.50
2022-08-14 16:12:00,,0829.5,5.00,0.00,29.8,28.6,00.0,38.3,31.5,33.5,0000.0,0010.77,0005.29,0004.51
2022-08-14 16:13:00,,0829.5,4.99,0.00,29.8,28.2,00.0,38.3,31.4,32.9,0000.0,0010.81,0005.32,0004.51
2022-08-14 16:14:00,,0829.4,5.01,0.00,29.7,27.7,00.0,38.3,31.2,33.0,0000.0,0010.76,0005.31,0004.51
2022-08-14 16:15:00,,0829.5,5.00,0.00,29.7,27.5,00.0,38.3,31.2,33.5,0000.0,0010.79,0005.30,0004.50
2022-08-14 16:16:00,,0829.5,5.01,0.00,29.6,27.5,00.0,38.3,31.1,33.9,0000.0,0011.33,0005.31,0004.52
2022-08-14 16:17:00,,0829.5,4.99,0.00,29.6,27.6,00.0,38.3,31.2,34.4,0000.0,0011.18,0005.30,0004.52
2022-08-14 16:18:00,,0829.5,5.00,0.00,29.6,27.8,00.0,38.3,31.2,33.9,0000.0,0011.13,0005.27,0004.51
2022-08-14 16:19:00,,0829.5,5.00,0.00,29.6,27.9,00.0,38.3,31.3,34.1,0000.0,0011.12,0005.24,0004.50
2022-08-14 16:20:00,,0829.5,5.00,0.00,29.6,28.1,00.0,38.3,31.3,34.6,0000.0,0011.49,0005.26,0004.51
2022-08-14 16:21:00,,0829.5,5.01,0.00,29.7,28.2,00.0,38.3,31.4,35.2,0000.0,0011.79,0005.26,0004.51
2022-08-14 16:22:00,,0829.5,4.99,0.00,29.9,28.4,00.0,38.3,31.6,34.5,0000.0,0011.43,0005.24,0004.50
2022-08-14 16:23:00,,0829.5,5.00,0.00,30.0,28.4,00.0,38.3,31.6,34.2,0000.0,0010.95,0005.20,0004.49
2022-08-14 16:24:00,,0829.5,5.01,0.00,30.0,27.9,00.0,38.3,31.4,33.7,0000.0,0012.01,0005.17,0004.48
2022-08-14 16:25:00,,0829.4,4.99,0.00,30.0,27.5,00.0,38.3,31.2,34.0,0000.0,0013.04,0005.20,0004.48
2022-08-14 16:26:00,,0829.5,5.00,0.00,30.0,27.4,00.0,38.3,31.2,34.1,0000.0,0013.28,0005.20,0004.49
2022-08-14 16:27:00,,0829.5,5.01,0.00,29.9,27.4,00.0,38.4,31.2,34.2,0000.0,0012.49,0005.15,0004.48
2022-08-14 16:28:00,,0829.5,4.99,0.00,29.9,27.6,00.0,38.4,31.2,34.5,0000.0,0012.04,0005.15,0004.47
2022-08-14 16:29:00,,0829.4,5.00,0.00,29.9,27.7,00.0,38.4,31.3,34.4,0000.0,0012.14,0005.17,0004.48
2022-08-14 16:30:00,,0829.5,4.99,0.00,29.9,27.9,00.0,38.4,31.4,34.5,0000.0,0012.02,0005.15,0004.48
2022-08-14 16:31:00,,0829.5,5.00,0.00,29.9,28.1,00.0,38.4,31.4,34.3,0000.0,0011.52,0005.09,0004.47
2022-08-14 16:32:00,,0829.5,4.99,0.00,29.9,28.2,00.0,38.4,31.4,34.7,0000.0,0011.78,0005.11,0004.48
2022-08-14 16:33:00,,0829.5,5.00,0.00,29.9,28.4,00.0,38.5,31.5,35.0,0000.0,0012.56,0005.13,0004.49
2022-08-14 16:34:00,,0829.5,5.01,0.00,30.0,28.2,00.0,38.5,31.5,34.6,0000.0,0012.52,0005.17,0004.51
2022-08-14 16:35:00,,0829.5,5.03,0.00,30.0,27.6,00.0,38.4,31.4,35.2,0000.0,0011.52,0005.20,0004.53
2022-08-14 16:36:00,,0829.5,4.98,0.00,30.1,27.3,00.0,38.4,31.4,34.3,0000.0,0010.76,0005.20,0004.54
2022-08-14 16:37:00,,0829.5,5.00,0.00,30.2,27.3,00.0,38.4,31.3,33.8,0000.0,0010.57,0005.21,0004.54
2022-08-14 16:38:00,,0829.5,5.00,0.00,30.2,27.4,00.0,38.4,31.3,33.6,0000.0,0010.70,0005.25,0004.54
2022-08-14 16:39:00,,0829.5,4.99,0.00,30.2,27.6,00.0,38.4,31.3,33.6,0000.0,0011.53,0005.31,0004.54
2022-08-14 16:40:00,,0829.5,5.01,0.00,30.2,27.8,00.0,38.5,31.4,33.9,0000.0,0011.67,0005.31,0004.54
2022-08-14 16:41:00,,0829.5,5.00,0.00,30.2,28.0,00.0,38.5,31.4,33.7,0000.0,0011.79,0005.35,0004.55
2022-08-14 16:42:00,,0829.5,5.01,0.00,30.2,28.1,00.0,38.5,31.5,33.5,0000.0,0012.00,0005.38,0004.54
2022-08-14 16:43:00,,0829.5,4.99,0.00,30.2,28.3,00.0,38.6,31.5,33.9,0000.0,0011.59,0005.35,0004.54
2022-08-14 16:44:00,,0829.5,4.99,0.00,30.2,28.4,00.0,38.6,31.6,33.6,0000.0,0011.25,0005.35,0004.54
2022-08-14 16:45:00,,0829.4,5.00,0.00,30.2,28.3,00.0,38.6,31.6,33.4,0000.0,0011.22,0005.36,0004.54
2022-08-14 16:46:00,,0829.5,5.01,0.00,30.2,27.8,00.0,38.6,31.4,33.5,0000.0,0011.20,0005.31,0004.53
2022-08-14 16:47:00,,0829.5,5.00,0.00,30.1,27.4,00.0,38.6,31.3,33.5,0000.0,0011.47,0005.35,0004.53
2022-08-14 16:48:00,,0829.5,5.00,0.00,30.0,27.4,00.0,38.6,31.2,33.2,0000.0,0011.75,0005.36,0004.53
2022-08-14 16:49:00,,0829.5,4.99,0.00,29.9,27.4,00.0,38.5,31.2,33.1,0000.0,0012.20,0005.40,0004.54
2022-08-14 16:50:00,,0829.5,4.99,0.00,29.9,27.6,00.0,38.5,31.3,33.4,0000.0,0012.13,0005.34,0004.54
2022-08-14 16:51:00,,0829.5,5.00,0.00,29.9,27.8,00.0,38.5,31.3,33.3,0000.0,0012.27,0005.34,0004.55
2022-08-14 16:52:00,,0829.5,4.99,0.00,29.9,27.9,00.0,38.5,31.4,33.3,0000.0,0012.35,0005.36,0004.56
2022-08-14 16:53:00,,0829.5,5.01,0.00,29.9,28.1,00.0,38.5,31.4,33.5,0000.0,0013.38,0005.36,0004.58
2022-08-14 16:54:00,,0829.5,4.98,0.00,29.9,28.2,00.0,38.5,31.5,33.3,0000.0,0014.23,0005.40,0004.58
2022-08-14 16:55:00,,0829.5,5.01,0.00,29.9,28.3,00.0,38.5,31.5,33.3,0000.0,0013.93,0005.41,0004.58
2022-08-14 16:56:00,,0829.5,5.00,0.00,29.9,27.8,00.0,38.5,31.3,32.3,0000.0,0013.80,0005.40,0004.58
2022-08-14 16:57:00,,0829.4,5.00,0.00,29.8,27.4,00.0,38.5,31.2,32.3,0000.0,0013.93,0005.42,0004.57
2022-08-14 16:58:00,,0829.3,5.00,0.00,29.8,27.3,00.0,38.4,31.2,33.2,0000.0,0013.85,0005.41,0004.56
2022-08-14 16:59:00,,0829.4,4.99,0.00,29.7,27.4,00.0,38.4,31.1,32.9,0000.0,0013.36,0005.38,0004.55
